Regional Weather Roundup
Issued by NWS

Home | Current Version | Previous Version | Graphics & Text | Print | Product List | Glossary On
Versions: 1 2 3 4 5 6 7 8 9 10 11 12 13 14 15 16 17 18 19 20 21 22 23 24 25 26 27 28 29 30 31 32 33 34 35 36 37 38 39 40 41 42 43 44 45 46 47 48 49 50
000
ASUS43 KOAX 301810
RWRNE

WEATHER ROUNDUP FOR NEBRASKA
NATIONAL WEATHER SERVICE OMAHA NE
100 PM CDT THU MAR 30 2017

NOTES: SATELLITE DATA IS BEING USED TO AUGMENT CLOUD COVER ABOVE
       12000 FEET.
       "FAIR" INDICATES FEW OR NO CLOUDS BELOW 12,000 FEET WITH NO
       SIGNIFICANT WEATHER AND/OR OBSTRUCTIONS TO VISIBILITY.

  * THESE STATIONS DO NOT REPORT WEATHER SUCH AS RAIN...SNOW OR FOG.

NEZ001>004-019>022-054>056-301900-
NEBRASKA PANHANDLE

CITY           SKY/WX    TMP DP  RH WIND       PRES   REMARKS
SCOTTSBLUFF    CLOUDY    49  39  68 SE7       29.75F
6HR MIN TEMP:  31; 6HR MAX TEMP:  49;

ALLIANCE       MOSUNNY   48  37  65 SE9       29.74F
6HR MIN TEMP:  23; 6HR MAX TEMP:  48;

CHADRON        CLOUDY    53  39  59 E7        29.73F
6HR MIN TEMP:  30; 6HR MAX TEMP:  53;

KIMBALL        CLOUDY    60  41  49 NW10G16   29.74F
SIDNEY         MOSUNNY   53  38  56 CALM      29.76F
6HR MIN TEMP:  30; 6HR MAX TEMP:  53;

$$

NEZ057>060-069>072-079>082-301900-
SOUTHWEST NEBRASKA

CITY           SKY/WX    TMP DP  RH WIND       PRES   REMARKS
NORTH PLATTE   CLOUDY    43  34  70 NE8       29.81F
6HR MIN TEMP:  37; 6HR MAX TEMP:  44;

IMPERIAL       CLOUDY    49  38  65 VRB5      29.78F
6HR MIN TEMP:  36; 6HR MAX TEMP:  51;

LEXINGTON      CLOUDY    40  35  82 N9        29.81S WCI  34
MCCOOK         CLOUDY    44  37  76 N7        29.81F
6HR MIN TEMP:  38; 6HR MAX TEMP:  44;

OGALLALA       SUNNY     51  39  63 E5        29.78F
$$

NEZ005>010-023>029-035>040-094-301900-
NORTH CENTRAL NEBRASKA

CITY           SKY/WX    TMP DP  RH WIND       PRES   REMARKS
VALENTINE      CLOUDY    38  33  82 E6        29.83F WCI  33
6HR MIN TEMP:  34; 6HR MAX TEMP:  39;

AINSWORTH      CLOUDY    38  35  87 NE7       29.83S WCI  33
BROKEN BOW     CLOUDY    40  34  79 N10       29.80F WCI  33
6HR MIN TEMP:  36; 6HR MAX TEMP:  40; 6HR PCP: TRACE;

O`NEILL        CLOUDY    40  38  94 N12       29.81F WCI  33
ORD            CLOUDY    43  35  73 N10       29.78F
6HR MIN TEMP:  37; 6HR MAX TEMP:  43;

THEDFORD       CLOUDY    38  35  89 CALM      29.82F
$$

NEZ041-046>049-061>064-073>077-083>087-301900-
SOUTH CENTRAL NEBRASKA

CITY           SKY/WX    TMP DP  RH WIND       PRES   REMARKS
GRAND ISLAND   CLOUDY    41  39  93 N14       29.77F
6HR MIN TEMP:  37; 6HR MAX TEMP:  41;

AURORA         CLOUDY    41  40  94 N18       29.75F
HASTINGS       CLOUDY    42  37  82 N20       29.77F
6HR MIN TEMP:  38; 6HR MAX TEMP:  42;

HEBRON         CLOUDY    43  39  88 N17G25    29.71F
HOLDREGE       CLOUDY    41  36  82 N13       29.78F
KEARNEY *      CLOUDY    43  34  70 N17       29.78F
YORK           CLOUDY    41  41 100 N16G25    29.74F
$$

NEZ011>018-030>034-042>045-301900-
NORTHEAST NEBRASKA

CITY           SKY/WX    TMP DP  RH WIND       PRES   REMARKS
NORFOLK        CLOUDY    40  37  89 N13       29.77F WCI  32
6HR MIN TEMP:  37; 6HR MAX TEMP:  40;

ALBION         CLOUDY    41  37  84 N12G17    29.78F
BLAIR          CLOUDY    42  40  91 N16       29.70S
FREMONT        CLOUDY    41  40  96 N8G17     29.74S
TEKAMAH        CLOUDY    42  38  85 N18       29.73F
6HR MIN TEMP:  40; 6HR MAX TEMP:  42;

WAYNE          CLOUDY    40  40  99 N13       29.77F WCI  33
$$

NEZ050>053-065>068-078-088>093-301900-
SOUTHEAST NEBRASKA

CITY           SKY/WX    TMP DP  RH WIND       PRES   REMARKS
LINCOLN        CLOUDY    43  40  89 N17G24    29.72F
6HR MIN TEMP:  40; 6HR MAX TEMP:  43; 6HR PCP:  0.01;

OMAHA EPPLEY   CLOUDY    43  38  82 N17       29.70S
6HR MIN TEMP:  41; 6HR MAX TEMP:  43; 6HR PCP: TRACE;

BEATRICE       CLOUDY    42  41  98 N14G20    29.70S
FALLS CITY     CLOUDY    45  42  89 N14       29.64R
6HR MIN TEMP:  43; 6HR MAX TEMP:  46; 6HR PCP:  0.40;

NEBRASKA CITY  CLOUDY    42  42 100 N16       29.67S
PLATTSMOUTH    CLOUDY    42  38  86 N12G22    29.68S
$$

NEZ044-045-051>053-067-301900-
OMAHA AREA

CITY           SKY/WX    TMP DP  RH WIND       PRES   REMARKS
OMAHA EPPLEY   CLOUDY    43  38  82 N17       29.70S
6HR MIN TEMP:  41; 6HR MAX TEMP:  43; 6HR PCP: TRACE;

BLAIR          CLOUDY    42  40  91 N16       29.70S
FREMONT        CLOUDY    41  40  96 N8G17     29.74S
MILLARD        CLOUDY    44  41  86 N7        29.71S
OFFUTT AFB     CLOUDY    43  39  87 N14       29.69F
PLATTSMOUTH    CLOUDY    42  38  86 N12G22    29.68S
WAHOO          CLOUDY    42  39  91 N17G23    29.72S
$$




USA.gov is the U.S. government's official web portal to all federal, state and local government web resources and services.